Visibility
15.0 15.0 15.0 15.0 15.0 15.0 15.0 15.0 15.0 15.0 15.0 15.0 15.0 15.0 15.0 15.0 15.0 15.0 15.0 15.0 15.0 15.0 15.0 15.0 1.1 15.0 2.9 15.0 15.0 15.0 15.0 15.0 15.0 15.0 15.0 15.0 15.0 15.0 15.0 15.0 15.0 15.0 15.0 15.0
15.0 15.0 15.0 15.0 15.0 15.0 15.0 15.0 15.0 15.0 15.0 15.0 15.0 15.0 15.0 15.0 15.0 15.0 15.0 15.0 15.0 15.0 15.0 15.0 15.0 15.0 11.8 15.0 15.0 15.0 15.0 15.0 15.0 15.0 15.0 15.0 15.0 15.0 15.0 15.0 15.0 15.0 15.0 15.0
15.0 15.0 15.0 8.9 14.9 13.9 15.0 15.0 12.8 15.0 15.0 15.0 15.0 15.0 15.0 15.0 15.0 15.0 15.0 15.0 15.0 15.0 15.0 15.0 15.0 15.0 14.0 0.9 6.2 15.0 15.0 15.0 15.0 15.0 15.0 15.0 15.0 15.0 15.0 15.0 15.0 15.0 15.0 15.0
15.0 15.0 15.0 15.0 3.5 4.2 13.0 15.0 15.0 15.0 7.3 15.0 15.0 2.0 15.0 15.0 15.0 15.0 15.0 15.0 15.0 15.0 15.0 15.0 15.0 15.0 15.0 10.9 2.3 15.0 15.0 15.0 15.0 15.0 15.0 15.0 15.0 15.0 15.0 15.0 15.0 15.0 15.0 15.0
15.0 15.0 15.0 15.0 10.9 7.1 15.0 15.0 15.0 15.0 14.6 9.5 15.0 15.0 15.0 15.0 15.0 15.0 15.0 15.0 15.0 15.0 15.0 15.0 15.0 15.0 15.0 15.0 14.3 15.0 15.0 15.0 15.0 15.0 15.0 15.0 15.0 15.0 15.0 15.0 15.0 15.0 15.0 15.0
15.0 15.0 15.0 14.7 15.0 15.0 15.0 15.0 15.0 15.0 15.0 1.3 15.0 15.0 15.0 15.0 15.0 15.0 15.0 15.0 15.0 15.0 15.0 15.0 11.9 15.0 15.0 15.0 15.0 15.0 15.0 15.0 15.0 15.0 15.0 15.0 15.0 15.0 12.7 13.9 15.0 15.0 15.0 15.0
15.0 15.0 15.0 15.0 15.0 13.3 15.0 11.4 3.0 13.5 8.4 11.4 15.0 15.0 15.0 15.0 15.0 15.0 15.0 15.0 15.0 15.0 15.0 12.9 12.0 6.0 15.0 15.0 15.0 15.0 15.0 15.0 15.0 15.0 15.0 15.0 15.0 15.0 15.0 15.0 15.0 15.0 15.0 15.0
15.0 15.0 15.0 15.0 15.0 11.2 15.0 0.9 0.2 0.6 14.7 15.0 15.0 15.0 15.0 15.0 15.0 15.0 15.0 15.0 15.0 15.0 15.0 15.0 15.0 15.0 3.9 8.9 13.7 15.0 15.0 15.0 15.0 15.0 15.0 15.0 15.0 15.0 15.0 15.0 15.0 15.0 15.0 15.0
11.5 15.0 15.0 15.0 15.0 11.8 12.9 2.3 15.0 0.1 6.1 0.1 15.0 15.0 15.0 15.0 15.0 15.0 15.0 15.0 15.0 15.0 15.0 15.0 6.1 15.0 15.0 15.0 15.0 15.0 15.0 15.0 15.0 15.0 15.0 15.0 15.0 15.0 15.0 13.1 5.0 15.0 15.0 15.0
15.0 0.1 15.0 15.0 15.0 13.3 14.8 11.2 0.0 0.0 0.0 0.2 8.1 15.0 15.0 15.0 15.0 15.0 15.0 15.0 15.0 15.0 15.0 15.0 15.0 15.0 15.0 15.0 15.0 15.0 11.0 15.0 15.0 15.0 15.0 15.0 1.8 15.0 15.0 11.6 9.7 15.0 15.0 15.0
15.0 7.1 13.8 15.0 15.0 15.0 15.0 15.0 5.0 2.6 0.4 0.1 0.3 15.0 15.0 15.0 15.0 15.0 15.0 15.0 15.0 15.0 15.0 15.0 15.0 15.0 15.0 15.0 11.9 15.0 15.0 15.0 15.0 15.0 15.0 15.0 15.0 15.0 15.0 15.0 15.0 15.0 15.0 15.0
15.0 15.0 4.7 15.0 12.2 15.0 15.0 15.0 14.7 5.0 0.1 0.0 0.1 11.1 15.0 15.0 15.0 15.0 15.0 15.0 15.0 15.0 15.0 15.0 15.0 15.0 15.0 15.0 5.4 1.8 1.4 14.2 14.9 15.0 13.1 0.5 14.9 15.0 5.1 15.0 15.0 15.0 15.0 15.0
15.0 13.5 0.1 12.6 15.0 15.0 15.0 7.9 15.0 15.0 15.0 0.7 0.1 10.7 15.0 2.1 15.0 15.0 15.0 15.0 15.0 15.0 15.0 15.0 2.0 15.0 15.0 15.0 14.3 1.3 1.5 0.3 12.4 14.9 1.1 0.2 1.1 11.0 9.1 15.0 15.0 15.0 15.0 15.0
15.0 15.0 8.9 0.9 10.5 15.0 15.0 14.5 11.2 15.0 15.0 0.2 0.1 0.6 15.0 9.8 15.0 15.0 15.0 15.0 15.0 15.0 15.0 12.7 15.0 2.3 3.3 6.7 0.2 0.1 0.1 0.1 0.2 0.2 0.1 0.1 0.7 15.0 15.0 15.0 15.0 15.0 15.0 15.0
15.0 15.0 15.0 15.0 15.0 5.4 3.2 3.4 15.0 12.6 15.0 12.3 2.5 1.2 15.0 4.1 12.7 3.0 15.0 15.0 15.0 15.0 15.0 15.0 15.0 0.4 12.8 0.9 0.3 0.3 0.2 0.2 2.8 9.2 0.2 0.2 13.1 15.0 15.0 15.0 15.0 15.0 15.0 15.0
15.0 15.0 15.0 15.0 15.0 15.0 15.0 15.0 15.0 14.9 15.0 15.0 6.7 13.1 14.9 3.1 2.5 0.1 15.0 2.1 0.1 3.0 13.1 0.3 0.2 0.2 0.2 0.3 0.2 0.2 0.2 0.2 1.3 0.2 0.2 15.0 15.0 15.0 15.0 15.0 15.0 15.0 15.0 15.0
15.0 15.0 15.0 15.0 15.0 15.0 10.0 14.1 0.2 14.9 15.0 15.0 11.5 4.4 8.2 0.8 0.0 0.0 0.1 11.5 0.1 0.1 2.4 1.3 2.1 0.1 6.2 3.2 1.1 0.4 0.6 6.8 15.0 15.0 4.5 15.0 15.0 15.0 15.0 15.0 15.0 15.0 15.0 15.0
15.0 15.0 15.0 15.0 15.0 15.0 15.0 8.4 6.9 10.5 15.0 15.0 13.1 11.5 15.0 0.1 0.1 0.1 0.2 0.1 0.1 0.2 0.1 0.1 0.2 0.1 0.4 9.5 15.0 15.0 12.5 11.1 9.4 15.0 15.0 15.0 15.0 15.0 15.0 15.0 15.0 15.0 15.0 15.0
15.0 15.0 15.0 15.0 10.1 15.0 15.0 14.8 15.0 14.7 11.2 15.0 15.0 15.0 15.0 6.4 15.0 2.3 0.2 0.2 0.1 0.1 2.8 0.3 0.5 0.5 1.3 2.0 15.0 3.9 15.0 9.5 15.0 15.0 15.0 15.0 15.0 15.0 15.0 15.0 15.0 15.0 15.0 15.0
15.0 15.0 15.0 15.0 10.7 0.4 15.0 15.0 15.0 12.3 1.3 15.0 15.0 15.0 15.0 15.0 13.3 0.1 0.1 0.1 0.1 0.1 15.0 0.4 0.8 1.8 2.6 2.2 6.4 15.0 15.0 15.0 15.0 15.0 15.0 15.0 15.0 15.0 15.0 15.0 15.0 15.0 15.0 15.0
15.0 15.0 15.0 15.0 15.0 15.0 15.0 15.0 15.0 15.0 0.1 15.0 15.0 15.0 10.4 0.1 0.0 0.1 14.2 0.4 0.9 5.0 15.0 15.0 11.4 5.4 4.7 4.1 4.5 15.0 15.0 15.0 15.0 15.0 15.0 15.0 15.0 15.0 15.0 15.0 15.0 15.0 15.0 15.0
13.6 10.3 15.0 15.0 6.4 11.5 15.0 15.0 4.7 9.5 15.0 15.0 15.0 14.9 15.0 0.3 0.2 0.6 0.5 0.2 0.3 2.4 9.5 10.7 15.0 15.0 6.3 15.0 15.0 15.0 14.3 15.0 15.0 15.0 15.0 15.0 15.0 15.0 15.0 15.0 15.0 15.0 15.0 15.0
2.9 13.4 15.0 15.0 15.0 15.0 15.0 15.0 15.0 15.0 15.0 15.0 15.0 15.0 15.0 12.6 1.3 13.5 0.2 0.2 0.3 3.8 13.6 6.8 9.9 15.0 15.0 11.8 15.0 15.0 15.0 15.0 15.0 15.0 15.0 15.0 15.0 15.0 15.0 15.0 15.0 15.0 15.0 15.0
15.0 15.0 15.0 15.0 14.9 15.0 14.0 15.0 15.0 15.0 15.0 15.0 15.0 15.0 15.0 15.0 15.0 15.0 5.9 5.3 1.0 12.6 15.0 15.0 14.4 15.0 15.0 15.0 15.0 15.0 15.0 15.0 15.0 15.0 15.0 15.0 15.0 15.0 15.0 15.0 15.0 15.0 15.0 15.0
15.0 15.0 15.0 15.0 15.0 15.0 15.0 15.0 15.0 15.0 15.0 15.0 15.0 15.0 15.0 15.0 15.0 15.0 15.0 15.0 15.0 8.4 11.5 13.5 15.0 11.7 15.0 15.0 15.0 15.0 15.0 15.0 15.0 15.0 15.0 15.0 15.0 15.0 15.0 15.0 15.0 15.0 15.0 15.0
15.0 15.0 15.0 15.0 15.0 15.0 15.0 15.0 15.0 15.0 15.0 15.0 15.0 15.0 15.0 15.0 15.0 15.0 15.0 15.0 15.0 11.2 15.0 13.4 4.6 8.1 15.0 15.0 15.0 15.0 15.0 15.0 15.0 15.0 15.0 15.0 15.0 15.0 15.0 15.0 15.0 15.0 15.0 15.0